www.pogodaiklimat.ru

Погода и климат >> Архив погоды >> Новая Зеландия >> Каслпойнт


ПОГОДА в Каслпойнт

  • Прогноз погоды в Каслпойнт
  • Монитор погоды в Каслпойнт

АРХИВ ПОГОДЫ в Каслпойнт

Время (UTC), дата Ветер
(напр.,м/с)
 
Видим.   Явления Облачность Т
(С)
Тd
(С)
f
(%)
Тe
(С)
Тes
(С)
Комфортность P
(гПа)
Po
(гПа)
Тmin
(С)
Tmax
(С)
R
(мм)
R24
(мм)
S
(см)
09 11.07 СЗ 12 н/о н/о +12.1 +7.2 72 +8 +8 1014.3 1000.0
12 11.07 СЗ 14 н/о н/о +11.6 +7.9 78 +7 +7 1013.5 999.2 +14.7
15 11.07 СЗ 10 н/о н/о +11.4 +8.3 81 +8 +8 1013.8 999.5
18 11.07 С 4 н/о н/о +11.0 +8.3 83 +9 +9 1013.8 999.5
21 11.07 С 5 н/о н/о +11.9 +8.4 79 +9 +9 1013.7 999.4
00 12.07 С 6 н/о н/о +13.9 +9.0 72 +12 +12 1011.3 997.2 +10.4
03 12.07 СВ 7 н/о н/о +11.5 +9.6 88 +8 +8 1008.0 993.8
06 12.07 С 6 н/о н/о +12.7 +8.6 76 +10 +10 1007.2 993.1
09 12.07 СЗ 8 н/о н/о +12.1 +8.7 80 +9 +9 1006.7 992.6
12 12.07 СЗ 14 н/о н/о +12.9 +8.5 75 +9 +9 1006.0 991.9 +15.0
15 12.07 СЗ 16 н/о н/о +12.9 +8.0 72 +9 +9 1006.2 992.1
18 12.07 СЗ 15 н/о н/о +12.5 +8.1 75 +8 +8 1007.8 993.7
21 12.07 СЗ 11 н/о н/о +13.4 +7.9 69 +10 +10 1009.5 995.4
00 13.07 З 11 н/о н/о +15.0 +7.5 61 +13 +13 1009.6 995.6 +11.1
03 13.07 З 5 н/о н/о +14.8 +7.5 62 +14 +14 1009.1 995.1
06 13.07 СЗ 11 н/о н/о +13.8 +7.9 68 +11 +11 1008.6 994.5
09 13.07 СЗ 13 н/о н/о +13.8 +8.4 70 +10 +10 1007.7 993.6
12 13.07 С 9 н/о н/о +13.5 +7.9 69 +11 +11 1006.4 992.3 +15.8
15 13.07 СЗ 9 н/о н/о +14.4 +9.0 70 +12 +12 1003.6 989.6
18 13.07 С 11 н/о н/о +15.0 +8.8 66 +13 +13 998.6 984.7
21 13.07 С 10 н/о н/о +13.8 +8.6 71 +11 +11 995.5 981.6
00 14.07 СЗ 12 н/о н/о +13.0 +10.7 86 +9 +9 994.0 980.1 +12.9
03 14.07 СЗ 17 н/о н/о +10.6 +8.6 87 +5 +5 989.4 975.4
06 14.07 СЗ 16 н/о н/о +10.9 +7.9 82 +6 +6 988.9 974.9 2
09 14.07 СЗ 16 н/о н/о +10.4 +6.4 76 +5 +5 990.0 976.0
12 14.07 СЗ 15 н/о н/о +8.8 +6.3 84 +3 +3 993.2 979.1 +16.5 0.4
15 14.07 З 11 н/о н/о +9.6 +6.5 81 +5 +5 994.6 980.5
18 14.07 СЗ 10 н/о н/о +9.6 +5.3 75 +5 +5 996.8 982.7
21 14.07 СЗ 9 н/о н/о +9.8 +5.9 77 +6 +6 999.8 985.6
00 15.07 СЗ 10 н/о н/о +12.3 +6.1 66 +9 +9 1001.1 987.0 +8.7 3
03 15.07 СЗ 7 н/о н/о +12.9 +3.2 52 +10 +10 1001.6 987.6
06 15.07 С 7 н/о н/о +10.2 +5.5 73 +7 +7 1002.4 988.2
09 15.07 С 8 н/о н/о +10.2 +3.4 63 +7 +7 1001.2 987.0
12 15.07 С 9 н/о н/о +10.5 +2.9 59 +7 +7 997.9 983.8 +13.3
15 15.07 С 12 н/о н/о +10.9 +4.8 66 +7 +7 993.7 979.7
18 15.07 С 8 н/о н/о +10.6 +6.1 74 +7 +7 991.5 977.5
21 15.07 С 11 н/о н/о +12.0 +8.3 78 +8 +8 990.9 977.0
00 16.07 СЗ 10 н/о н/о +13.0 +8.7 75 +10 +10 989.9 976.0 +9.6 1
03 16.07 СЗ 10 н/о н/о +13.7 +8.3 70 +11 +11 988.9 975.1
06 16.07 СЗ 9 н/о н/о +11.8 +8.3 79 +8 +8 989.3 975.4
09 16.07 СЗ 9 н/о н/о +11.2 +6.3 72 +7 +7 989.0 975.1
12 16.07 СЗ 10 н/о н/о +10.4 +7.0 79 +6 +6 987.9 973.9 +14.7
15 16.07 СЗ 13 н/о н/о +10.2 +6.5 78 +5 +5 987.0 973.0
18 16.07 СЗ 7 н/о н/о +9.1 +6.9 86 +5 +5 986.9 972.9 1
21 16.07 СЗ 12 н/о н/о +10.4 +5.8 73 +6 +6 985.8 971.9
00 17.07 СЗ 15 н/о н/о +13.1 +6.7 65 +9 +9 986.2 972.4 +8.8
03 17.07 СЗ 12 н/о н/о +12.4 +4.9 60 +9 +9 987.5 973.6
06 17.07 СЗ 11 н/о н/о +9.9 +3.4 64 +5 +5 989.5 975.5
09 17.07 З 5 н/о н/о +7.7 +3.3 74 +4 +4 994.5 980.3
12 17.07 З 11 н/о н/о +7.3 +4.9 85 +1 +1 997.8 983.5 +13.5
15 17.07 СВ 2 н/о н/о +6.9 +4.6 85 +5 +5 1000.7 986.4
18 17.07 СЗ 7 н/о н/о +7.3 +3.5 77 +3 +3 1001.2 986.9
21 17.07 С 3 н/о н/о +10.1 +4.6 69 +8 +8 1003.1 988.9
00 18.07 СЗ 12 н/о н/о +12.2 +6.5 68 +8 +8 1003.2 989.1 +5.7
03 18.07 СЗ 11 н/о н/о +13.1 +5.4 60 +10 +10 1003.3 989.3
06 18.07 СЗ 13 н/о н/о +10.8 +5.9 72 +6 +6 1004.4 990.2

 

Местоположение метеостанции Каслпойнт (Новая Зеландия): широта -40.90 долгота 176.23 высота над уровнем моря 20 м.

В архиве по умолчанию представлена погода в Каслпойнт за последнюю неделю. Архивные данные за месяц целиком и за предыдущие месяцы, начиная с января 2011 года, Вы можете получить, выбрав интересующий диапазон дат из раскрывающегося списка и нажав кнопку "Ввод!".


*Определитесь, кто Вы:
робот инопланетянин человек

Внимание! Время в таблицах - всемирное. Для получения местного времени необходимо прибавить поправку, которая равна 12 ч.

Смотрите также архив погоды в соседних городах и на ближайших метеорологических станциях:

Погода в Пальмерстон-Норте (Новая Зеландия) (84 км)
Погода в Парапарауму (Новая Зеландия) (105 км)
Погода в Веллингтоне (Новая Зеландия) (129 км)
Погода в Нейпире (Новая Зеландия) (170 км)
Погода на Уэйауру (Новая Зеландия) (171 км)
Погода на Мысе Кэмпбелл (Новая Зеландия) (193 км)
Погода на Таупо (Новая Зеландия) (242 км)
Погода в Нельсоне (Новая Зеландия) (255 км)
Погода в Кайкуре (Новая Зеландия) (269 км)
Погода в Нью-Плимуте (Новая Зеландия) (273 км)

Пояснения к столбцам:

Ветер - указаны скорость ветра в м/с - средняя за 10 мин, порывы в срок и между сроками (в фигурных скобках) и направление, откуда дует ветер: С - северный, СВ - северо-восточный, В - восточный, ЮВ - юго-восточный, Ю - южный, ЮЗ - юго-западный, З - западный, СЗ - северо-западный.
Видимость - горизонтальная дальность видимости в метрах или километрах. При видимости от 1 до 10 км при отсутствии осадков обычно наблюдается дымка, при ухудшении видимости до 1 км и менее - туман. В сухую погоду видимость может ухудшаться дымом, пылью или мглою.
Явления - указаны атмосферные явления, наблюдавшиеся в срок или в последний час перед сроком; фигурными скобками обозначены явления, наблюдавшиеся между сроками (за 1-3 часа до срока); квадратными скобками обозначены град или гололедные отложения с указанием их диаметра в мм.
Облачность - указаны через наклонную черту общая и нижняя облачность в баллах и высота нижней границы облаков в метрах; квадратными скобками обозначены формы облаков: Ci - перистые, Cs - перисто-слоистые, Cc - перисто-кучевые, Ac - высококучевые, As - высокослоистые, Sc - слоисто-кучевые, Ns - слоисто-дождевые, Cu - кучевые, Cb - кучево-дождевые. Подробнее классификацию облаков см. в Атласе облаков (PDF).
T - Температура воздуха - температура, измеренная на высоте 2 м над землей.
Td - Температура точки росы - температура, при понижении до которой содержащийся в воздухе водяной пар достигнет насыщения.
f - Относительная влажность воздуха - влажноcть воздуха, измеренная на высоте 2 м над землей.
Te - Эффективная температура - температура, которую ощущает одетый по сезону человек в тени. Характеристика душности погоды. При расчете учитывается влияние влажности воздуха и скорости ветра на теплоощущения человека.
Tes - Эффективная температура на солнце - температура, которую ощущает человек, с поправкой на солнечный нагрев. Характеристика знойности погоды. Зависит от высоты солнца над горизонтом, облачности и скорости ветра. Ночью, в пасмурную погоду, а также при ветре 12 м/с и более поправка равна нулю.
P - Атмосферное давление - приведенное к уровню моря атмосферное давление.
Po - Атмосферное давление - измеренное на уровне метеостанции атмосферное давление.
Tmin - Минимальная температура - минимум температуры воздуха на высоте 2 м над землей.
Tmax - Максимальная температура - максимум температуры воздуха на высоте 2 м над землей.
R - Количество осадков - Количество выпавших осадков за период времени, мм. При наведении курсора мыши на число - период времени, за который выпало указанное количество осадков.
R24 - Количество осадков - Количество выпавших осадков за 24 часа, мм.
S - Снежный покров - Высота снежного покрова, см. При наведении курсора мыши на число - состояние снежного покрова и степень покрытия местности в баллах.